Location: Arthez
(43.0833°N, 0.2500°W)
Time: 14:25:05
(UTC+00:00)

NOSS 3-1 (A) - Pass Details

Date: 17 December 2023
Orbit: 665 x 1546 km, 63.4° (Epoch: 18 February)

Event Time Altitude Azimuth Distance (km) Brightness Sun altitude
Exits shadow 06:32:17 - 330° (NNW) 3,250 5.8 -9.6°
Reaches altitude 10° 06:34:13 10° 342° (NNW) 2,845 5.6 -9.3°
Maximum altitude 06:38:39 18° 23° (NNE) 2,520 5.7 -8.6°
Drops below altitude 10° 06:43:38 10° 63° (ENE) 3,269 6.8 -7.8°
Sets 06:47:58 0° 81° (E) 4,404 7.9 -7.0°
